Location: Białystok
(53.1343°N, 23.1544°E)
Time: 02:11:54
(UTC+01:00)

ISS - Pass Details

Date: 02 February 2019
Orbit: 403 x 411 km, 51.6° (Epoch: 17 February)

Event Time Altitude Azimuth Distance (km) Brightness Sun altitude
Rises 18:05:29 0° 274° (W) 2,337 1.7 -17.0°
Reaches altitude 10° 18:07:35 10° 271° (W) 1,477 0.3 -17.3°
Maximum altitude 18:10:51 59° 191° (S) 480 -3.5 -17.8°
Enters shadow 18:11:34 45° 139° (SE) 570 -3.4 -17.9°
